Simultaneous Nadir Overpasses (SNOs) Predictions

Prediction of SNOs over PacNW region [( 10.00, 139.50) to ( 22.70, 165.60)] between AQUA and NPP Satellites:

Table of predicted SNOs over PacNW region for the next 30.0 days since TLE Epoch: 6/12/2020
Index Date (AQUA) Time (AQUA) AQUA Lat,Lon Date (NPP) Time (NPP) NPP Lat,Lon Distance(km) Time Diff (sec)
1 06/17/2020 15:09:59 22.63, 159.86 06/17/2020 15:10:35 23.18, 157.32 266.78 36
2 06/25/2020 15:59:25 22.63, 147.50 06/25/2020 16:01:16 23.29, 144.68 297.92 111
3 07/03/2020 15:09:57 22.58, 159.85 07/03/2020 15:10:30 23.16, 157.35 264.39 33




NCC Satellite Simultaneous Nadir Overpasses (SNOs) Prediction Service
